"Date","Average Accumulated Water Year PPT (in)","Average SWE (in)"
10/01/1981,0.000,0.000
10/02/1981,0.031,0.000
10/03/1981,0.042,0.000
10/04/1981,0.144,0.009
10/05/1981,0.326,0.046
10/06/1981,0.330,0.047
10/07/1981,0.336,0.025
10/08/1981,0.342,0.009
10/09/1981,0.693,0.098
10/10/1981,0.707,0.098
10/11/1981,0.781,0.091
10/12/1981,0.971,0.123
10/13/1981,1.022,0.138
10/14/1981,1.026,0.141
10/15/1981,1.029,0.141
10/16/1981,1.048,0.148
10/17/1981,1.076,0.149
10/18/1981,1.086,0.152
10/19/1981,1.089,0.144
10/20/1981,1.094,0.126
10/21/1981,1.378,0.438
10/22/1981,1.380,0.439
10/23/1981,1.385,0.443
10/24/1981,1.447,0.506
10/25/1981,1.610,0.515
10/26/1981,1.643,0.328
10/27/1981,1.644,0.238
10/28/1981,1.644,0.213
10/29/1981,1.644,0.197
10/30/1981,1.787,0.275
10/31/1981,1.794,0.284
11/01/1981,1.798,0.283
11/02/1981,1.800,0.261
11/03/1981,1.803,0.251
11/04/1981,1.806,0.242
11/05/1981,1.807,0.237
11/06/1981,1.807,0.236
11/07/1981,1.807,0.232
11/08/1981,1.807,0.228
11/09/1981,1.807,0.228
11/10/1981,1.811,0.226
11/11/1981,1.813,0.224
11/12/1981,1.813,0.223
11/13/1981,1.813,0.210
11/14/1981,1.813,0.208
11/15/1981,1.825,0.215
11/16/1981,1.826,0.216
11/17/1981,1.826,0.205
11/18/1981,1.880,0.220
11/19/1981,1.953,0.293
11/20/1981,1.955,0.296
11/21/1981,1.957,0.298
11/22/1981,1.963,0.292
11/23/1981,2.101,0.390
11/24/1981,2.109,0.394
11/25/1981,2.143,0.412
11/26/1981,2.161,0.432
11/27/1981,2.183,0.448
11/28/1981,2.194,0.466
11/29/1981,2.197,0.468
11/30/1981,2.207,0.479
12/01/1981,2.245,0.525
12/02/1981,2.261,0.548
12/03/1981,2.305,0.566
12/04/1981,2.308,0.568
12/05/1981,2.308,0.565
12/06/1981,2.310,0.532
12/07/1981,2.310,0.511
12/08/1981,2.311,0.510
12/09/1981,2.311,0.508
12/10/1981,2.311,0.491
12/11/1981,2.343,0.486
12/12/1981,2.398,0.547
12/13/1981,2.404,0.554
12/14/1981,2.414,0.564
12/15/1981,2.433,0.580
12/16/1981,2.684,0.884
12/17/1981,2.712,0.913
12/18/1981,2.720,0.920
12/19/1981,2.724,0.923
12/20/1981,2.735,0.913
12/21/1981,2.771,0.943
12/22/1981,2.789,0.956
12/23/1981,2.824,0.996
12/24/1981,2.824,0.996
12/25/1981,2.855,1.021
12/26/1981,2.892,1.072
12/27/1981,2.896,1.077
12/28/1981,2.901,1.082
12/29/1981,2.911,1.090
12/30/1981,2.930,1.112
12/31/1981,2.969,1.167
01/01/1982,2.989,1.184
01/02/1982,3.031,1.228
01/03/1982,3.039,1.236
01/04/1982,3.050,1.242
01/05/1982,3.133,1.338
01/06/1982,3.246,1.457
01/07/1982,3.262,1.469
01/08/1982,3.264,1.474
01/09/1982,3.277,1.490
01/10/1982,3.301,1.519
01/11/1982,3.324,1.551
01/12/1982,3.409,1.646
01/13/1982,3.470,1.710
01/14/1982,3.471,1.712
01/15/1982,3.557,1.817
01/16/1982,3.695,1.981
01/17/1982,3.725,2.016
01/18/1982,3.727,2.020
01/19/1982,3.729,2.023
01/20/1982,3.741,2.040
01/21/1982,3.750,2.051
01/22/1982,3.842,2.154
01/23/1982,3.854,2.171
01/24/1982,3.887,2.212
01/25/1982,3.929,2.255
01/26/1982,3.932,2.259
01/27/1982,3.942,2.144
01/28/1982,3.946,2.157
01/29/1982,3.947,2.158
01/30/1982,3.951,2.161
01/31/1982,3.962,2.171
02/01/1982,4.020,2.221
02/02/1982,4.054,2.247
02/03/1982,4.143,2.391
02/04/1982,4.185,2.418
02/05/1982,4.193,2.424
02/06/1982,4.195,2.427
02/07/1982,4.200,2.431
02/08/1982,4.201,2.433
02/09/1982,4.202,2.434
02/10/1982,4.204,2.435
02/11/1982,4.205,2.436
02/12/1982,4.212,2.439
02/13/1982,4.212,2.439
02/14/1982,4.212,2.275
02/15/1982,4.214,2.165
02/16/1982,4.214,1.930
02/17/1982,4.214,1.706
02/18/1982,4.214,1.567
02/19/1982,4.215,1.422
02/20/1982,4.215,1.306
02/21/1982,4.216,1.220
02/22/1982,4.219,1.181
02/23/1982,4.266,1.218
02/24/1982,4.380,1.359
02/25/1982,4.401,1.381
02/26/1982,4.401,1.381
02/27/1982,4.401,1.356
02/28/1982,4.401,1.283
03/01/1982,4.404,1.279
03/02/1982,4.413,1.253
03/03/1982,4.426,1.267
03/04/1982,4.470,1.313
03/05/1982,4.533,1.391
03/06/1982,4.546,1.400
03/07/1982,4.582,1.432
03/08/1982,4.626,1.469
03/09/1982,4.654,1.511
03/10/1982,4.718,1.395
03/11/1982,4.725,1.404
03/12/1982,4.811,1.454
03/13/1982,4.850,1.494
03/14/1982,4.851,1.488
03/15/1982,4.852,1.474
03/16/1982,4.984,1.525
03/17/1982,5.223,1.710
03/18/1982,5.235,1.718
03/19/1982,5.312,1.702
03/20/1982,5.659,2.121
03/21/1982,5.696,2.166
03/22/1982,5.696,2.166
03/23/1982,5.697,2.130
03/24/1982,5.952,2.352
03/25/1982,6.020,2.436
03/26/1982,6.025,2.440
03/27/1982,6.048,2.287
03/28/1982,6.049,1.971
03/29/1982,6.049,1.843
03/30/1982,6.289,1.943
03/31/1982,6.363,2.003
04/01/1982,6.364,1.998
04/02/1982,6.520,2.034
04/03/1982,6.521,2.035
04/04/1982,6.561,2.059
04/05/1982,6.605,2.094
04/06/1982,6.605,2.094
04/07/1982,6.624,2.074
04/08/1982,6.862,2.334
04/09/1982,6.868,2.337
04/10/1982,6.878,2.350
04/11/1982,6.892,2.131
04/12/1982,7.039,2.063
04/13/1982,7.040,2.039
04/14/1982,7.040,1.986
04/15/1982,7.040,1.954
04/16/1982,7.274,2.076
04/17/1982,7.274,2.066
04/18/1982,7.281,2.035
04/19/1982,7.388,2.077
04/20/1982,7.400,2.089
04/21/1982,7.410,2.094
04/22/1982,7.412,2.087
04/23/1982,7.412,2.031
04/24/1982,7.413,1.956
04/25/1982,7.421,1.885
04/26/1982,7.569,1.908
04/27/1982,7.570,1.897
04/28/1982,7.700,1.912
04/29/1982,7.831,1.875
04/30/1982,7.851,1.879
05/01/1982,7.851,1.838
05/02/1982,7.852,1.774
05/03/1982,7.852,1.625
05/04/1982,7.853,1.561
05/05/1982,7.864,1.568
05/06/1982,7.866,1.569
05/07/1982,7.883,1.537
05/08/1982,7.899,1.521
05/09/1982,8.032,1.531
05/10/1982,8.221,1.554
05/11/1982,8.241,1.558
05/12/1982,8.269,1.568
05/13/1982,8.276,1.557
05/14/1982,8.318,1.538
05/15/1982,8.530,1.520
05/16/1982,8.806,1.533
05/17/1982,8.940,1.525
05/18/1982,8.943,1.462
05/19/1982,8.944,1.351
05/20/1982,9.475,1.344
05/21/1982,9.653,1.356
05/22/1982,9.653,1.323
05/23/1982,9.653,1.236
05/24/1982,9.727,1.180
05/25/1982,9.740,1.146
05/26/1982,9.740,1.107
05/27/1982,9.740,1.022
05/28/1982,9.776,0.954
05/29/1982,9.920,0.970
05/30/1982,9.960,0.974
05/31/1982,9.960,0.974
06/01/1982,9.964,0.936
06/02/1982,10.221,0.918
06/03/1982,10.322,0.915
06/04/1982,10.333,0.883
06/05/1982,10.499,0.866
06/06/1982,10.999,0.853
06/07/1982,11.380,0.869
06/08/1982,11.485,0.860
06/09/1982,11.697,0.877
06/10/1982,11.699,0.860
06/11/1982,11.699,0.840
06/12/1982,11.710,0.798
06/13/1982,11.725,0.728
06/14/1982,11.744,0.676
06/15/1982,12.134,0.644
06/16/1982,12.224,0.599
06/17/1982,12.477,0.564
06/18/1982,12.778,0.576
06/19/1982,12.779,0.563
06/20/1982,12.779,0.543
06/21/1982,12.779,0.516
06/22/1982,12.779,0.467
06/23/1982,12.852,0.410
06/24/1982,13.119,0.369
06/25/1982,13.188,0.340
06/26/1982,13.337,0.321
06/27/1982,13.344,0.292
06/28/1982,13.344,0.254
06/29/1982,13.362,0.211
06/30/1982,13.371,0.181
07/01/1982,13.377,0.154
07/02/1982,13.382,0.135
07/03/1982,13.391,0.120
07/04/1982,13.392,0.104
07/05/1982,13.414,0.093
07/06/1982,13.420,0.086
07/07/1982,13.425,0.080
07/08/1982,13.429,0.072
07/09/1982,13.469,0.067
07/10/1982,13.781,0.065
07/11/1982,13.781,0.059
07/12/1982,13.800,0.053
07/13/1982,13.865,0.045
07/14/1982,13.868,0.038
07/15/1982,13.937,0.031
07/16/1982,13.977,0.026
07/17/1982,13.985,0.022
07/18/1982,13.999,0.020
07/19/1982,14.004,0.017
07/20/1982,14.023,0.013
07/21/1982,14.023,0.010
07/22/1982,14.028,0.007
07/23/1982,14.030,0.005
07/24/1982,14.150,0.003
07/25/1982,15.050,0.002
07/26/1982,15.115,0.002
07/27/1982,15.145,0.001
07/28/1982,15.174,0.000
07/29/1982,15.235,0.000
07/30/1982,15.255,0.000
07/31/1982,15.264,0.000
08/01/1982,15.348,0.000
08/02/1982,15.348,0.000
08/03/1982,15.348,0.000
08/04/1982,15.348,0.000
08/05/1982,15.349,0.000
08/06/1982,15.349,0.000
08/07/1982,15.353,0.000
08/08/1982,15.354,0.000
08/09/1982,15.619,0.000
08/10/1982,15.815,0.000
08/11/1982,15.819,0.000
08/12/1982,15.825,0.000
08/13/1982,15.825,0.000
08/14/1982,15.825,0.000
08/15/1982,15.829,0.000
08/16/1982,15.834,0.000
08/17/1982,15.834,0.000
08/18/1982,15.839,0.000
08/19/1982,15.867,0.000
08/20/1982,15.872,0.000
08/21/1982,15.935,0.000
08/22/1982,15.954,0.000
08/23/1982,16.036,0.000
08/24/1982,16.135,0.000
08/25/1982,16.143,0.000
08/26/1982,16.145,0.000
08/27/1982,16.154,0.000
08/28/1982,16.284,0.000
08/29/1982,16.294,0.000
08/30/1982,16.294,0.000
08/31/1982,16.309,0.000
09/01/1982,16.310,0.000
09/02/1982,16.310,0.000
09/03/1982,16.310,0.000
09/04/1982,16.310,0.000
09/05/1982,16.314,0.000
09/06/1982,16.317,0.000
09/07/1982,16.317,0.000
09/08/1982,16.317,0.000
09/09/1982,16.318,0.000
09/10/1982,16.322,0.000
09/11/1982,16.514,0.000
09/12/1982,16.545,0.004
09/13/1982,16.645,0.021
09/14/1982,17.900,0.342
09/15/1982,18.147,0.336
09/16/1982,18.171,0.298
09/17/1982,18.177,0.206
09/18/1982,18.186,0.179
09/19/1982,18.186,0.137
09/20/1982,18.186,0.103
09/21/1982,18.194,0.069
09/22/1982,18.198,0.026
09/23/1982,18.198,0.014
09/24/1982,18.198,0.010
09/25/1982,18.215,0.007
09/26/1982,18.220,0.003
09/27/1982,18.624,0.003
09/28/1982,18.810,0.016
09/29/1982,19.017,0.059
09/30/1982,19.268,0.101
10/01/1982,0.065,0.103
10/02/1982,0.126,0.117
10/03/1982,0.126,0.106
10/04/1982,0.142,0.092
10/05/1982,0.240,0.088
10/06/1982,0.334,0.116
10/07/1982,0.348,0.119
10/08/1982,0.408,0.130
10/09/1982,0.753,0.248
10/10/1982,0.871,0.301
10/11/1982,0.887,0.309
10/12/1982,0.887,0.305
10/13/1982,0.890,0.302
10/14/1982,0.903,0.294
10/15/1982,0.927,0.258
10/16/1982,0.940,0.228
10/17/1982,0.941,0.196
10/18/1982,0.948,0.189
10/19/1982,1.175,0.372
10/20/1982,1.188,0.387
10/21/1982,1.204,0.364
10/22/1982,1.211,0.334
10/23/1982,1.211,0.301
10/24/1982,1.221,0.260
10/25/1982,1.222,0.238
10/26/1982,1.225,0.225
10/27/1982,1.334,0.264
10/28/1982,1.659,0.340
10/29/1982,1.663,0.344
10/30/1982,1.671,0.351
10/31/1982,1.672,0.350
11/01/1982,1.705,0.368
11/02/1982,1.757,0.428
11/03/1982,1.769,0.437
11/04/1982,1.774,0.441
11/05/1982,1.778,0.444
11/06/1982,1.782,0.441
11/07/1982,1.831,0.470
11/08/1982,1.840,0.481
11/09/1982,1.844,0.482
11/10/1982,1.895,0.537
11/11/1982,1.902,0.540
11/12/1982,1.953,0.601
11/13/1982,2.002,0.663
11/14/1982,2.024,0.691
11/15/1982,2.025,0.692
11/16/1982,2.029,0.697
11/17/1982,2.033,0.696
11/18/1982,2.034,0.618
11/19/1982,2.046,0.589
11/20/1982,2.167,0.641
11/21/1982,2.168,0.642
11/22/1982,2.201,0.680
11/23/1982,2.214,0.693
11/24/1982,2.219,0.698
11/25/1982,2.228,0.705
11/26/1982,2.228,0.705
11/27/1982,2.232,0.703
11/28/1982,2.235,0.692
11/29/1982,2.235,0.681
11/30/1982,2.235,0.679
12/01/1982,2.262,0.706
12/02/1982,2.687,1.210
12/03/1982,2.856,1.395
12/04/1982,2.904,1.438
12/05/1982,2.924,1.419
12/06/1982,2.927,1.425
12/07/1982,3.084,1.624
12/08/1982,3.170,1.724
12/09/1982,3.175,1.730
12/10/1982,3.177,1.733
12/11/1982,3.177,1.733
12/12/1982,3.177,1.733
12/13/1982,3.185,1.742
12/14/1982,3.193,1.753
12/15/1982,3.204,1.765
12/16/1982,3.211,1.771
12/17/1982,3.212,1.673
12/18/1982,3.220,1.631
12/19/1982,3.227,1.636
12/20/1982,3.227,1.635
12/21/1982,3.227,1.632
12/22/1982,3.227,1.571
12/23/1982,3.227,1.569
12/24/1982,3.484,2.045
12/25/1982,3.491,2.054
12/26/1982,3.496,2.061
12/27/1982,3.614,2.236
12/28/1982,3.624,2.249
12/29/1982,3.632,2.260
12/30/1982,3.643,2.275
12/31/1982,3.647,2.279
01/01/1983,3.647,2.279
01/02/1983,3.647,2.279
01/03/1983,3.654,2.287
01/04/1983,3.656,2.291
01/05/1983,3.667,2.310
01/06/1983,3.754,2.094
01/07/1983,3.838,2.167
01/08/1983,3.838,2.075
01/09/1983,3.909,2.036
01/10/1983,3.921,2.042
01/11/1983,3.965,2.063
01/12/1983,3.965,1.995
01/13/1983,3.965,1.874
01/14/1983,3.965,1.855
01/15/1983,3.969,1.858
01/16/1983,3.969,1.859
01/17/1983,3.969,1.859
01/18/1983,3.969,1.860
01/19/1983,3.969,1.860
01/20/1983,3.969,1.860
01/21/1983,3.969,1.860
01/22/1983,3.969,1.860
01/23/1983,3.969,1.860
01/24/1983,3.990,1.875
01/25/1983,3.994,1.877
01/26/1983,3.997,1.879
01/27/1983,4.023,1.910
01/28/1983,4.042,1.859
01/29/1983,4.065,1.852
01/30/1983,4.065,1.853
01/31/1983,4.065,1.854
02/01/1983,4.071,1.858
02/02/1983,4.097,1.875
02/03/1983,4.097,1.875
02/04/1983,4.100,1.877
02/05/1983,4.100,1.877
02/06/1983,4.101,1.878
02/07/1983,4.101,1.878
02/08/1983,4.102,1.880
02/09/1983,4.102,1.880
02/10/1983,4.129,1.862
02/11/1983,4.134,1.864
02/12/1983,4.136,1.846
02/13/1983,4.141,1.742
02/14/1983,4.156,1.642
02/15/1983,4.169,1.625
02/16/1983,4.172,1.580
02/17/1983,4.195,1.574
02/18/1983,4.195,1.541
02/19/1983,4.359,1.503
02/20/1983,4.384,1.526
02/21/1983,4.390,1.531
02/22/1983,4.390,1.528
02/23/1983,4.390,1.520
02/24/1983,4.390,1.515
02/25/1983,4.393,1.510
02/26/1983,4.394,1.501
02/27/1983,4.394,1.498
02/28/1983,4.399,1.502
03/01/1983,4.415,1.523
03/02/1983,4.415,1.517
03/03/1983,4.415,1.512
03/04/1983,4.415,1.499
03/05/1983,4.416,1.498
03/06/1983,4.618,1.725
03/07/1983,4.635,1.744
03/08/1983,4.645,1.711
03/09/1983,4.679,1.718
03/10/1983,4.680,1.593
03/11/1983,4.681,1.530
03/12/1983,4.683,1.520
03/13/1983,4.683,1.516
03/14/1983,4.688,1.514
03/15/1983,4.707,1.535
03/16/1983,4.734,1.557
03/17/1983,4.757,1.589
03/18/1983,4.800,1.626
03/19/1983,4.867,1.684
03/20/1983,4.867,1.684
03/21/1983,4.875,1.690
03/22/1983,4.897,1.708
03/23/1983,4.908,1.695
03/24/1983,4.910,1.663
03/25/1983,5.082,1.721
03/26/1983,5.337,1.965
03/27/1983,5.370,1.990
03/28/1983,5.377,1.912
03/29/1983,5.407,1.940
03/30/1983,5.434,1.903
03/31/1983,5.477,1.909
04/01/1983,5.542,1.952
04/02/1983,5.574,1.973
04/03/1983,5.585,1.977
04/04/1983,5.728,2.123
04/05/1983,5.827,2.195
04/06/1983,5.834,2.199
04/07/1983,5.834,2.199
04/08/1983,5.836,2.173
04/09/1983,5.838,2.117
04/10/1983,5.838,2.073
04/11/1983,5.862,2.073
04/12/1983,6.046,2.177
04/13/1983,6.185,2.295
04/14/1983,6.199,2.304
04/15/1983,6.238,2.304
04/16/1983,6.271,2.289
04/17/1983,6.272,2.193
04/18/1983,6.272,2.177
04/19/1983,6.273,2.141
04/20/1983,6.294,2.140
04/21/1983,6.296,2.109
04/22/1983,6.309,2.095
04/23/1983,6.323,2.059
04/24/1983,6.324,2.000
04/25/1983,6.333,1.943
04/26/1983,6.343,1.952
04/27/1983,6.344,1.958
04/28/1983,6.429,1.962
04/29/1983,6.579,1.993
04/30/1983,6.583,1.987
05/01/1983,6.585,1.989
05/02/1983,6.588,1.994
05/03/1983,6.590,1.989
05/04/1983,6.590,1.972
05/05/1983,6.590,1.944
05/06/1983,6.714,1.909
05/07/1983,7.279,2.049
05/08/1983,7.300,2.036
05/09/1983,7.361,2.017
05/10/1983,7.442,2.043
05/11/1983,7.657,2.085
05/12/1983,8.049,2.507
05/13/1983,8.131,2.606
05/14/1983,8.198,2.483
05/15/1983,8.198,2.261
05/16/1983,8.203,2.222
05/17/1983,8.205,2.220
05/18/1983,8.209,2.193
05/19/1983,8.403,2.202
05/20/1983,8.683,2.260
05/21/1983,8.708,2.239
05/22/1983,8.729,2.223
05/23/1983,8.737,2.172
05/24/1983,8.737,2.039
05/25/1983,8.737,1.927
05/26/1983,8.737,1.767
05/27/1983,8.738,1.652
05/28/1983,8.743,1.570
05/29/1983,8.743,1.481
05/30/1983,8.805,1.379
05/31/1983,8.956,1.406
06/01/1983,8.957,1.386
06/02/1983,8.957,1.334
06/03/1983,8.960,1.266
06/04/1983,9.050,1.185
06/05/1983,9.300,1.211
06/06/1983,9.344,1.198
06/07/1983,9.456,1.170
06/08/1983,9.479,1.114
06/09/1983,9.499,1.033
06/10/1983,9.539,0.944
06/11/1983,9.548,0.859
06/12/1983,9.997,0.817
06/13/1983,10.270,0.817
06/14/1983,10.322,0.813
06/15/1983,10.336,0.764
06/16/1983,10.356,0.700
06/17/1983,10.552,0.663
06/18/1983,10.567,0.587
06/19/1983,10.580,0.524
06/20/1983,10.580,0.495
06/21/1983,10.589,0.455
06/22/1983,10.591,0.415
06/23/1983,10.591,0.358
06/24/1983,10.591,0.291
06/25/1983,10.639,0.240
06/26/1983,10.639,0.209
06/27/1983,10.642,0.177
06/28/1983,10.652,0.159
06/29/1983,10.773,0.146
06/30/1983,10.831,0.125
07/01/1983,10.832,0.111
07/02/1983,10.850,0.098
07/03/1983,10.978,0.090
07/04/1983,10.999,0.087
07/05/1983,10.999,0.076
07/06/1983,10.999,0.060
07/07/1983,11.006,0.043
07/08/1983,11.006,0.032
07/09/1983,11.007,0.022
07/10/1983,11.063,0.017
07/11/1983,11.069,0.016
07/12/1983,11.069,0.014
07/13/1983,11.069,0.011
07/14/1983,11.081,0.008
07/15/1983,11.092,0.006
07/16/1983,11.135,0.007
07/17/1983,11.135,0.006
07/18/1983,11.135,0.004
07/19/1983,11.135,0.003
07/20/1983,11.141,0.001
07/21/1983,11.143,0.001
07/22/1983,11.143,0.000
07/23/1983,11.179,0.000
07/24/1983,11.181,0.000
07/25/1983,11.181,0.000
07/26/1983,11.195,0.000
07/27/1983,11.230,0.000
07/28/1983,11.295,0.000
07/29/1983,11.352,0.000
07/30/1983,11.352,0.000
07/31/1983,11.352,0.000
08/01/1983,11.368,0.000
08/02/1983,11.368,0.000
08/03/1983,11.374,0.000
08/04/1983,11.403,0.000
08/05/1983,11.412,0.000
08/06/1983,11.412,0.000
08/07/1983,11.424,0.000
08/08/1983,11.424,0.000
08/09/1983,11.424,0.000
08/10/1983,11.563,0.000
08/11/1983,11.656,0.000
08/12/1983,11.656,0.000
08/13/1983,11.656,0.000
08/14/1983,11.656,0.000
08/15/1983,11.657,0.000
08/16/1983,11.665,0.000
08/17/1983,11.666,0.000
08/18/1983,11.720,0.000
08/19/1983,11.721,0.000
08/20/1983,11.721,0.000
08/21/1983,11.854,0.000
08/22/1983,12.312,0.000
08/23/1983,12.355,0.000
08/24/1983,12.372,0.000
08/25/1983,12.372,0.000
08/26/1983,12.372,0.000
08/27/1983,12.372,0.000
08/28/1983,12.373,0.000
08/29/1983,12.373,0.000
08/30/1983,12.373,0.000
08/31/1983,12.373,0.000
09/01/1983,12.373,0.000
09/02/1983,12.374,0.000
09/03/1983,12.374,0.000
09/04/1983,12.374,0.000
09/05/1983,12.383,0.000
09/06/1983,12.383,0.000
09/07/1983,12.383,0.000
09/08/1983,12.475,0.000
09/09/1983,12.576,0.000
09/10/1983,12.605,0.002
09/11/1983,12.610,0.001
09/12/1983,12.626,0.000
09/13/1983,12.626,0.000
09/14/1983,12.631,0.000
09/15/1983,12.658,0.000
09/16/1983,12.667,0.000
09/17/1983,12.693,0.000
09/18/1983,12.710,0.000
09/19/1983,12.763,0.003
09/20/1983,13.137,0.111
09/21/1983,13.144,0.101
09/22/1983,13.151,0.060
09/23/1983,13.157,0.024
09/24/1983,13.157,0.001
09/25/1983,13.157,0.000
09/26/1983,13.157,0.000
09/27/1983,13.157,0.000
09/28/1983,13.464,0.000
09/29/1983,13.668,0.013
09/30/1983,13.724,0.013
10/01/1983,0.001,0.010
10/02/1983,0.060,0.009
10/03/1983,0.278,0.035
10/04/1983,0.414,0.057
10/05/1983,0.436,0.046
10/06/1983,0.442,0.034
10/07/1983,0.466,0.023
10/08/1983,0.563,0.056
10/09/1983,0.573,0.040
10/10/1983,0.585,0.032
10/11/1983,0.799,0.058
10/12/1983,0.799,0.058
10/13/1983,0.829,0.063
10/14/1983,0.831,0.055
10/15/1983,1.238,0.096
10/16/1983,1.332,0.130
10/17/1983,1.365,0.145
10/18/1983,1.365,0.140
10/19/1983,1.571,0.175
10/20/1983,1.586,0.179
10/21/1983,1.591,0.168
10/22/1983,1.591,0.144
10/23/1983,1.592,0.118
10/24/1983,1.719,0.158
10/25/1983,1.724,0.161
10/26/1983,1.725,0.139
10/27/1983,1.725,0.110
10/28/1983,1.725,0.094
10/29/1983,1.725,0.088
10/30/1983,1.725,0.084
10/31/1983,1.725,0.078
11/01/1983,1.725,0.075
11/02/1983,1.726,0.073
11/03/1983,1.726,0.072
11/04/1983,1.726,0.068
11/05/1983,1.726,0.066
11/06/1983,1.744,0.073
11/07/1983,1.853,0.075
11/08/1983,2.168,0.241
11/09/1983,2.245,0.308
11/10/1983,2.253,0.318
11/11/1983,2.342,0.312
11/12/1983,2.345,0.303
11/13/1983,2.369,0.311
11/14/1983,2.417,0.321
11/15/1983,2.417,0.322
11/16/1983,2.417,0.319
11/17/1983,2.417,0.315
11/18/1983,2.417,0.314
11/19/1983,2.435,0.333
11/20/1983,2.435,0.333
11/21/1983,2.491,0.378
11/22/1983,2.680,0.585
11/23/1983,2.700,0.603
11/24/1983,2.700,0.603
11/25/1983,2.700,0.603
11/26/1983,3.104,1.024
11/27/1983,3.114,1.038
11/28/1983,3.195,1.125
11/29/1983,3.238,1.173
11/30/1983,3.253,1.190
12/01/1983,3.254,1.191
12/02/1983,3.255,1.192
12/03/1983,3.255,1.192
12/04/1983,3.313,1.254
12/05/1983,3.503,1.486
12/06/1983,3.504,1.487
12/07/1983,3.531,1.516
12/08/1983,3.583,1.576
12/09/1983,3.610,1.605
12/10/1983,3.613,1.609
12/11/1983,3.613,1.609
12/12/1983,3.621,1.620
12/13/1983,3.666,1.674
12/14/1983,3.705,1.712
12/15/1983,3.824,1.837
12/16/1983,3.854,1.871
12/17/1983,3.953,1.986
12/18/1983,3.966,1.999
12/19/1983,3.984,2.018
12/20/1983,4.108,2.147
12/21/1983,4.177,2.221
12/22/1983,4.177,2.221
12/23/1983,4.180,2.223
12/24/1983,4.180,2.224
12/25/1983,4.183,2.227
12/26/1983,4.190,2.234
12/27/1983,4.251,2.304
12/28/1983,4.264,2.319
12/29/1983,4.264,2.319
12/30/1983,4.273,2.328
12/31/1983,4.294,2.354
01/01/1984,4.299,2.358
01/02/1984,4.301,2.359
01/03/1984,4.302,2.360
01/04/1984,4.304,2.341
01/05/1984,4.315,2.288
01/06/1984,4.316,2.244
01/07/1984,4.316,2.176
01/08/1984,4.316,2.152
01/09/1984,4.396,2.202
01/10/1984,4.402,2.209
01/11/1984,4.402,2.209
01/12/1984,4.449,2.276
01/13/1984,4.526,2.379
01/14/1984,4.557,2.432
01/15/1984,4.607,2.504
01/16/1984,4.609,2.509
01/17/1984,4.681,2.611
01/18/1984,4.681,2.613
01/19/1984,4.682,2.615
01/20/1984,4.684,2.617
01/21/1984,4.684,2.617
01/22/1984,4.687,2.620
01/23/1984,4.687,2.620
01/24/1984,4.687,2.622
01/25/1984,4.714,2.558
01/26/1984,4.715,2.452
01/27/1984,4.715,2.409
01/28/1984,4.716,2.147
01/29/1984,4.786,1.999
01/30/1984,4.849,2.065
01/31/1984,4.852,2.067
02/01/1984,4.862,2.014
02/02/1984,4.864,1.982
02/03/1984,4.865,1.979
02/04/1984,4.867,1.981
02/05/1984,4.867,1.981
02/06/1984,4.868,1.942
02/07/1984,4.869,1.915
02/08/1984,4.871,1.904
02/09/1984,4.875,1.907
02/10/1984,4.876,1.900
02/11/1984,4.929,1.951
02/12/1984,4.945,1.971
02/13/1984,4.946,1.956
02/14/1984,4.947,1.908
02/15/1984,5.032,1.979
02/16/1984,5.041,1.985
02/17/1984,5.083,2.030
02/18/1984,5.176,2.149
02/19/1984,5.180,2.152
02/20/1984,5.182,2.153
02/21/1984,5.182,2.127
02/22/1984,5.191,2.072
02/23/1984,5.200,2.086
02/24/1984,5.229,2.103
02/25/1984,5.229,2.103
02/26/1984,5.267,2.141
02/27/1984,5.345,2.243
02/28/1984,5.349,2.246
02/29/1984,5.363,2.256
03/01/1984,5.363,2.214
03/02/1984,5.376,2.169
03/03/1984,5.513,2.184
03/04/1984,5.773,2.465
03/05/1984,5.887,2.559
03/06/1984,6.038,2.699
03/07/1984,6.104,2.775
03/08/1984,6.146,2.815
03/09/1984,6.174,2.838
03/10/1984,6.201,2.873
03/11/1984,6.201,2.652
03/12/1984,6.209,2.632
03/13/1984,6.216,2.595
03/14/1984,6.216,2.455
03/15/1984,6.217,2.386
03/16/1984,6.217,2.358
03/17/1984,6.348,2.443
03/18/1984,6.423,2.387
03/19/1984,6.436,2.368
03/20/1984,6.463,2.271
03/21/1984,6.593,2.220
03/22/1984,6.629,2.123
03/23/1984,6.643,2.120
03/24/1984,6.646,2.052
03/25/1984,6.970,2.092
03/26/1984,6.993,2.101
03/27/1984,7.164,2.209
03/28/1984,7.316,2.312
03/29/1984,7.343,2.328
03/30/1984,7.425,2.337
03/31/1984,7.535,2.408
04/01/1984,7.541,2.396
04/02/1984,7.640,2.426
04/03/1984,7.718,2.465
04/04/1984,7.718,2.441
04/05/1984,7.733,2.403
04/06/1984,7.734,2.361
04/07/1984,7.748,2.312
04/08/1984,7.748,2.294
04/09/1984,7.748,2.274
04/10/1984,7.884,2.307
04/11/1984,7.939,2.304
04/12/1984,7.973,2.315
04/13/1984,7.973,2.313
04/14/1984,7.973,2.313
04/15/1984,7.973,2.309
04/16/1984,7.973,2.279
04/17/1984,7.973,2.199
04/18/1984,7.974,2.107
04/19/1984,7.974,2.061
04/20/1984,8.161,2.087
04/21/1984,8.214,2.115
04/22/1984,8.222,2.117
04/23/1984,8.222,2.094
04/24/1984,8.361,2.120
04/25/1984,8.545,2.194
04/26/1984,9.556,3.291
04/27/1984,10.732,4.632
04/28/1984,10.908,4.829
04/29/1984,10.920,4.826
04/30/1984,10.941,4.840
05/01/1984,10.946,4.502
05/02/1984,10.979,4.284
05/03/1984,10.998,3.861
05/04/1984,11.191,3.551
05/05/1984,11.229,3.337
05/06/1984,11.784,3.294
05/07/1984,12.031,3.368
05/08/1984,12.031,3.301
05/09/1984,12.034,3.186
05/10/1984,12.037,3.066
05/11/1984,12.040,3.028
05/12/1984,12.041,2.965
05/13/1984,12.060,2.854
05/14/1984,12.062,2.721
05/15/1984,12.065,2.585
05/16/1984,12.067,2.431
05/17/1984,12.067,2.375
05/18/1984,12.067,2.313
05/19/1984,12.067,2.219
05/20/1984,12.075,2.055
05/21/1984,12.100,1.935
05/22/1984,12.165,1.929
05/23/1984,12.166,1.875
05/24/1984,12.274,1.738
05/25/1984,12.581,1.845
05/26/1984,12.667,1.870
05/27/1984,12.838,1.858
05/28/1984,12.838,1.844
05/29/1984,12.841,1.776
05/30/1984,12.841,1.610
05/31/1984,12.842,1.396
06/01/1984,12.935,1.295
06/02/1984,12.935,1.280
06/03/1984,12.937,1.215
06/04/1984,13.124,1.171
06/05/1984,13.220,1.104
06/06/1984,13.414,1.081
06/07/1984,13.555,1.050
06/08/1984,13.564,1.041
06/09/1984,13.944,1.088
06/10/1984,14.462,1.133
06/11/1984,14.854,1.148
06/12/1984,14.888,1.121
06/13/1984,14.896,1.078
06/14/1984,15.177,1.001
06/15/1984,15.396,0.896
06/16/1984,15.754,0.792
06/17/1984,15.821,0.723
06/18/1984,15.969,0.671
06/19/1984,15.973,0.610
06/20/1984,15.973,0.547
06/21/1984,16.050,0.490
06/22/1984,16.051,0.420
06/23/1984,16.051,0.394
06/24/1984,16.051,0.350
06/25/1984,16.055,0.295
06/26/1984,16.061,0.252
06/27/1984,16.061,0.210
06/28/1984,16.062,0.180
06/29/1984,16.062,0.145
06/30/1984,16.066,0.110
07/01/1984,16.066,0.095
07/02/1984,16.066,0.081
07/03/1984,16.066,0.065
07/04/1984,16.083,0.054
07/05/1984,16.083,0.044
07/06/1984,16.091,0.033
07/07/1984,16.142,0.024
07/08/1984,16.147,0.018
07/09/1984,16.178,0.014
07/10/1984,16.402,0.011
07/11/1984,16.402,0.010
07/12/1984,16.402,0.008
07/13/1984,16.402,0.006
07/14/1984,16.408,0.004
07/15/1984,16.408,0.003
07/16/1984,16.408,0.002
07/17/1984,16.414,0.001
07/18/1984,16.414,0.000
07/19/1984,16.416,0.000
07/20/1984,16.433,0.000
07/21/1984,16.438,0.000
07/22/1984,16.479,0.000